Time,TemperatureF,DewpointF,PressureIn,WindDirection,WindDirectionDegrees,WindSpeedMPH,WindSpeedGustMPH,Humidity,HourlyPrecipIn,Conditions,Clouds,dailyrainin,SoftwareType,DateUTC
2013-03-22 00:03:00,53.5,45.0,0.00,East,86,0.0,-999.0,72,-99.99,,,0.00,weatherlink.com 1.10,2013-03-22 05:03:00,
2013-03-22 00:18:00,53.4,45.0,0.00,East,86,0.0,-999.0,73,-99.99,,,0.00,weatherlink.com 1.10,2013-03-22 05:18:00,
2013-03-22 00:33:00,53.3,45.0,0.00,East,87,0.0,-999.0,73,-99.99,,,0.00,weatherlink.com 1.10,2013-03-22 05:33:00,
2013-03-22 00:48:00,53.4,45.0,0.00,East,87,0.0,-999.0,73,-99.99,,,0.00,weatherlink.com 1.10,2013-03-22 05:48:00,
2013-03-22 01:03:00,53.4,45.0,0.00,East,87,0.0,-999.0,73,-99.99,,,0.00,weatherlink.com 1.10,2013-03-22 06:03:00,
2013-03-22 01:18:00,53.4,45.0,0.00,East,88,0.0,-999.0,74,-99.99,,,0.00,weatherlink.com 1.10,2013-03-22 06:18:00,
2013-03-22 01:33:00,53.6,46.0,0.00,East,88,0.0,-999.0,74,-99.99,,,0.00,weatherlink.com 1.10,2013-03-22 06:33:00,
2013-03-22 01:48:00,53.7,46.0,0.00,East,87,0.0,-999.0,74,-99.99,,,0.00,weatherlink.com 1.10,2013-03-22 06:48:00,
2013-03-22 02:03:00,53.7,46.0,0.00,East,87,0.0,-999.0,74,-99.99,,,0.00,weatherlink.com 1.10,2013-03-22 07:03:00,
2013-03-22 02:18:00,53.7,46.0,0.00,NE,55,0.0,-999.0,74,-99.99,,,0.00,weatherlink.com 1.10,2013-03-22 07:18:00,
2013-03-22 02:33:00,53.5,45.0,0.00,NE,55,0.0,-999.0,74,-99.99,,,0.00,weatherlink.com 1.10,2013-03-22 07:33:00,
2013-03-22 02:48:00,53.4,45.0,0.00,NE,40,0.0,-999.0,74,-99.99,,,0.00,weatherlink.com 1.10,2013-03-22 07:48:00,
2013-03-22 03:03:00,53.3,45.0,0.00,NE,41,0.0,-999.0,74,-99.99,,,0.00,weatherlink.com 1.10,2013-03-22 08:03:00,
2013-03-22 03:18:00,53.2,45.0,0.00,NE,41,0.0,-999.0,75,-99.99,,,0.00,weatherlink.com 1.10,2013-03-22 08:18:00,
2013-03-22 03:33:00,52.9,45.0,0.00,NE,49,0.0,-999.0,75,-99.99,,,0.00,weatherlink.com 1.10,2013-03-22 08:33:00,
2013-03-22 03:49:00,52.3,45.0,0.00,NNE,25,0.0,-999.0,76,-99.99,,,0.00,weatherlink.com 1.10,2013-03-22 08:49:00,
2013-03-22 04:04:00,51.7,44.0,0.00,NNE,25,0.0,-999.0,76,-99.99,,,0.00,weatherlink.com 1.10,2013-03-22 09:04:00,
2013-03-22 04:19:00,51.0,44.0,0.00,NNE,25,0.0,-999.0,78,-99.99,,,0.00,weatherlink.com 1.10,2013-03-22 09:19:00,
2013-03-22 04:34:00,50.4,44.0,0.00,NNE,26,0.0,-999.0,79,-99.99,,,0.00,weatherlink.com 1.10,2013-03-22 09:34:00,
2013-03-22 04:49:00,50.5,44.0,0.00,NNE,30,0.0,-999.0,79,-99.99,,,0.00,weatherlink.com 1.10,2013-03-22 09:49:00,
2013-03-22 05:04:00,51.0,44.0,0.00,ESE,105,0.0,-999.0,78,-99.99,,,0.00,weatherlink.com 1.10,2013-03-22 10:04:00,
2013-03-22 05:19:00,51.3,44.0,0.00,East,100,0.0,-999.0,77,-99.99,,,0.00,weatherlink.com 1.10,2013-03-22 10:19:00,
2013-03-22 05:34:00,51.5,44.0,0.00,East,100,0.0,-999.0,76,-99.99,,,0.00,weatherlink.com 1.10,2013-03-22 10:34:00,
2013-03-22 05:49:00,51.6,44.0,0.00,East,90,0.0,-999.0,75,-99.99,,,0.00,weatherlink.com 1.10,2013-03-22 10:49:00,
2013-03-22 06:04:00,51.7,44.0,0.00,East,90,0.0,-999.0,76,-99.99,,,0.00,weatherlink.com 1.10,2013-03-22 11:04:00,
2013-03-22 06:19:00,51.7,44.0,0.00,ENE,69,0.0,-999.0,76,-99.99,,,0.00,weatherlink.com 1.10,2013-03-22 11:19:00,
2013-03-22 06:34:00,51.9,44.0,0.00,NNE,25,0.0,-999.0,75,-99.99,,,0.00,weatherlink.com 1.10,2013-03-22 11:34:00,
2013-03-22 06:49:00,52.3,44.0,22.50,NNE,24,2.0,-999.0,73,-99.99,,,0.00,weatherlink.com 1.10,2013-03-22 11:49:00,
2013-03-22 07:04:00,52.4,44.0,22.50,SE,137,0.0,-999.0,72,-99.99,,,0.00,weatherlink.com 1.10,2013-03-22 12:04:00,
2013-03-22 07:19:00,52.6,44.0,22.50,ESE,107,3.0,-999.0,72,-99.99,,,0.00,weatherlink.com 1.10,2013-03-22 12:19:00,
2013-03-22 07:34:00,52.9,44.0,0.00,NE,38,2.0,-999.0,72,-99.99,,,0.00,weatherlink.com 1.10,2013-03-22 12:34:00,
2013-03-22 07:49:00,53.1,44.0,0.00,ESE,107,1.0,-999.0,72,-99.99,,,0.00,weatherlink.com 1.10,2013-03-22 12:49:00,
2013-03-22 08:04:00,53.7,44.0,0.00,SE,127,0.0,-999.0,70,-99.99,,,0.00,weatherlink.com 1.10,2013-03-22 13:04:00,
2013-03-22 08:19:00,54.4,44.0,0.00,ESE,123,5.0,-999.0,69,-99.99,,,0.00,weatherlink.com 1.10,2013-03-22 13:19:00,
2013-03-22 08:34:00,55.2,44.0,0.00,East,98,4.0,-999.0,67,-99.99,,,0.00,weatherlink.com 1.10,2013-03-22 13:34:00,
2013-03-22 08:49:00,56.3,45.0,0.00,East,81,4.0,-999.0,67,-99.99,,,0.00,weatherlink.com 1.10,2013-03-22 13:49:00,
2013-03-22 09:04:00,57.1,45.0,0.00,East,93,4.0,-999.0,65,-99.99,,,0.00,weatherlink.com 1.10,2013-03-22 14:04:00,
2013-03-22 09:19:00,58.0,45.0,0.00,East,93,2.0,-999.0,63,-99.99,,,0.00,weatherlink.com 1.10,2013-03-22 14:19:00,
2013-03-22 09:34:00,59.0,46.0,0.00,ESE,113,3.0,-999.0,62,-99.99,,,0.00,weatherlink.com 1.10,2013-03-22 14:34:00,
2013-03-22 09:49:00,59.8,46.0,0.00,SE,140,6.0,-999.0,61,-99.99,,,0.00,weatherlink.com 1.10,2013-03-22 14:49:00,
2013-03-22 10:04:00,60.7,47.0,0.00,ESE,107,5.0,-999.0,62,-99.99,,,0.00,weatherlink.com 1.10,2013-03-22 15:04:00,
2013-03-22 10:19:00,62.0,48.0,0.00,ESE,114,5.0,-999.0,61,-99.99,,,0.00,weatherlink.com 1.10,2013-03-22 15:19:00,
2013-03-22 10:34:00,62.7,49.0,0.00,SE,143,2.0,-999.0,61,-99.99,,,0.00,weatherlink.com 1.10,2013-03-22 15:34:00,
2013-03-22 10:49:00,62.8,49.0,0.00,SE,142,3.0,-999.0,61,-99.99,,,0.00,weatherlink.com 1.10,2013-03-22 15:49:00,
2013-03-22 11:04:00,62.6,50.0,0.00,ESE,110,2.0,-999.0,63,-99.99,,,0.00,weatherlink.com 1.10,2013-03-22 16:04:00,
2013-03-22 11:19:00,62.8,50.0,0.00,East,80,4.0,-999.0,64,-99.99,,,0.00,weatherlink.com 1.10,2013-03-22 16:19:00,
2013-03-22 11:34:00,62.7,51.0,0.00,SSE,154,9.0,-999.0,65,-99.99,,,0.00,weatherlink.com 1.10,2013-03-22 16:34:00,
2013-03-22 11:49:00,62.6,51.0,0.00,ESE,113,1.0,-999.0,66,-99.99,,,0.00,weatherlink.com 1.10,2013-03-22 16:49:00,
2013-03-22 12:04:00,63.2,52.0,0.00,SE,128,4.0,-999.0,66,-99.99,,,0.00,weatherlink.com 1.10,2013-03-22 17:04:00,
2013-03-22 12:19:00,63.5,52.0,0.00,ESE,113,7.0,-999.0,66,-99.99,,,0.00,weatherlink.com 1.10,2013-03-22 17:19:00,
2013-03-22 12:34:00,63.8,52.0,0.00,SE,140,11.0,-999.0,66,-99.99,,,0.00,weatherlink.com 1.10,2013-03-22 17:34:00,
2013-03-22 12:49:00,64.7,53.0,0.00,SSE,153,14.0,-999.0,65,-99.99,,,0.00,weatherlink.com 1.10,2013-03-22 17:49:00,
2013-03-22 13:05:00,65.8,54.0,0.00,ESE,121,11.0,-999.0,65,-99.99,,,0.00,weatherlink.com 1.10,2013-03-22 18:05:00,
2013-03-22 13:20:00,66.2,54.0,0.00,SE,128,13.0,-999.0,64,-99.99,,,0.00,weatherlink.com 1.10,2013-03-22 18:20:00,
2013-03-22 13:35:00,66.7,54.0,0.00,ESE,103,11.0,-999.0,65,-99.99,,,0.00,weatherlink.com 1.10,2013-03-22 18:35:00,
2013-03-22 13:50:00,67.7,55.0,0.00,SE,142,15.0,-999.0,65,-99.99,,,0.00,weatherlink.com 1.10,2013-03-22 18:50:00,
2013-03-22 14:05:00,67.0,56.0,0.00,SSE,157,16.0,-999.0,67,-99.99,,,0.00,weatherlink.com 1.10,2013-03-22 19:05:00,
2013-03-22 14:20:00,66.8,56.0,0.00,East,80,4.0,-999.0,68,-99.99,,,0.00,weatherlink.com 1.10,2013-03-22 19:20:00,
2013-03-22 14:35:00,66.3,56.0,0.00,East,86,3.0,-999.0,70,-99.99,,,0.00,weatherlink.com 1.10,2013-03-22 19:35:00,
2013-03-22 14:50:00,66.3,57.0,0.00,ESE,113,4.0,-999.0,71,-99.99,,,0.00,weatherlink.com 1.10,2013-03-22 19:50:00,
2013-03-22 15:05:00,66.0,57.0,0.00,East,89,2.0,-999.0,72,-99.99,,,0.00,weatherlink.com 1.10,2013-03-22 20:05:00,
2013-03-22 15:20:00,65.7,57.0,0.00,SE,132,6.0,-999.0,74,-99.99,,,0.00,weatherlink.com 1.10,2013-03-22 20:20:00,
2013-03-22 15:35:00,65.9,57.0,0.00,ESE,103,2.0,-999.0,74,-99.99,,,0.00,weatherlink.com 1.10,2013-03-22 20:35:00,
2013-03-22 15:50:00,64.8,59.0,0.00,ESE,106,1.0,-999.0,80,-99.99,,,0.01,weatherlink.com 1.10,2013-03-22 20:50:00,
2013-03-22 16:05:00,63.9,59.0,0.00,East,86,1.0,-999.0,83,-99.99,,,0.01,weatherlink.com 1.10,2013-03-22 21:05:00,
2013-03-22 16:20:00,62.9,58.0,0.00,ESE,115,2.0,-999.0,85,-99.99,,,0.01,weatherlink.com 1.10,2013-03-22 21:20:00,
2013-03-22 16:35:00,62.6,58.0,0.00,SE,140,0.0,-999.0,86,-99.99,,,0.03,weatherlink.com 1.10,2013-03-22 21:35:00,
2013-03-22 16:50:00,62.5,59.0,0.00,SE,139,1.0,-999.0,87,-99.99,,,0.03,weatherlink.com 1.10,2013-03-22 21:50:00,
2013-03-22 17:05:00,62.8,59.0,0.00,SE,136,3.0,-999.0,88,-99.99,,,0.03,weatherlink.com 1.10,2013-03-22 22:05:00,
2013-03-22 17:20:00,63.0,59.0,0.00,ENE,70,1.0,-999.0,86,-99.99,,,0.03,weatherlink.com 1.10,2013-03-22 22:20:00,
2013-03-22 17:35:00,63.2,59.0,0.00,East,84,1.0,-999.0,85,-99.99,,,0.03,weatherlink.com 1.10,2013-03-22 22:35:00,
2013-03-22 17:50:00,63.3,58.0,0.00,SSE,151,7.0,-999.0,84,-99.99,,,0.03,weatherlink.com 1.10,2013-03-22 22:50:00,
2013-03-22 18:05:00,63.2,58.0,0.00,East,81,1.0,-999.0,84,-99.99,,,0.03,weatherlink.com 1.10,2013-03-22 23:05:00,
2013-03-22 18:20:00,63.1,58.0,0.00,ESE,115,3.0,-999.0,83,-99.99,,,0.03,weatherlink.com 1.10,2013-03-22 23:20:00,
2013-03-22 18:35:00,62.9,58.0,0.00,ESE,113,1.0,-999.0,83,-99.99,,,0.03,weatherlink.com 1.10,2013-03-22 23:35:00,
2013-03-22 18:50:00,62.6,57.0,0.00,SE,126,7.0,-999.0,83,-99.99,,,0.03,weatherlink.com 1.10,2013-03-22 23:50:00,
2013-03-22 19:05:00,62.3,57.0,28.26,East,80,4.0,-999.0,83,-99.99,,,0.03,weatherlink.com 1.10,2013-03-23 00:05:00,
2013-03-22 19:20:00,62.1,57.0,28.26,ESE,119,4.0,-999.0,83,-99.99,,,0.03,weatherlink.com 1.10,2013-03-23 00:20:00,
2013-03-22 19:35:00,61.7,57.0,27.27,ESE,105,5.0,-999.0,83,-99.99,,,0.03,weatherlink.com 1.10,2013-03-23 00:35:00,
2013-03-22 19:50:00,61.5,56.0,27.27,ESE,112,9.0,-999.0,83,-99.99,,,0.03,weatherlink.com 1.10,2013-03-23 00:50:00,
2013-03-22 20:05:00,61.3,56.0,27.27,SSE,163,6.0,-999.0,83,-99.99,,,0.03,weatherlink.com 1.10,2013-03-23 01:05:00,
2013-03-22 20:20:00,61.2,56.0,27.27,ESE,106,3.0,-999.0,83,-99.99,,,0.03,weatherlink.com 1.10,2013-03-23 01:20:00,
2013-03-22 20:35:00,61.0,56.0,27.27,East,96,3.0,-999.0,83,-99.99,,,0.03,weatherlink.com 1.10,2013-03-23 01:35:00,
2013-03-22 20:50:00,61.0,56.0,27.27,East,97,3.0,-999.0,83,-99.99,,,0.03,weatherlink.com 1.10,2013-03-23 01:50:00,
2013-03-22 21:05:00,61.0,56.0,0.00,ESE,117,4.0,-999.0,83,-99.99,,,0.03,weatherlink.com 1.10,2013-03-23 02:05:00,
2013-03-22 21:20:00,61.0,56.0,0.00,East,80,4.0,-999.0,83,-99.99,,,0.03,weatherlink.com 1.10,2013-03-23 02:20:00,
2013-03-22 21:35:00,61.0,56.0,0.00,East,92,2.0,-999.0,83,-99.99,,,0.03,weatherlink.com 1.10,2013-03-23 02:35:00,
2013-03-22 21:50:00,61.1,56.0,0.00,ENE,78,4.0,-999.0,83,-99.99,,,0.03,weatherlink.com 1.10,2013-03-23 02:50:00,
2013-03-22 22:05:00,61.0,56.0,0.00,SE,130,7.0,-999.0,83,-99.99,,,0.03,weatherlink.com 1.10,2013-03-23 03:05:00,
2013-03-22 22:20:00,61.1,56.0,0.00,ESE,115,4.0,-999.0,83,-99.99,,,0.03,weatherlink.com 1.10,2013-03-23 03:20:00,
2013-03-22 22:35:00,61.2,56.0,0.00,ESE,112,6.0,-999.0,83,-99.99,,,0.03,weatherlink.com 1.10,2013-03-23 03:35:00,
2013-03-22 22:50:00,61.5,56.0,0.00,East,84,2.0,-999.0,82,-99.99,,,0.03,weatherlink.com 1.10,2013-03-23 03:50:00,
2013-03-22 23:05:00,61.9,56.0,0.00,ESE,114,4.0,-999.0,82,-99.99,,,0.03,weatherlink.com 1.10,2013-03-23 04:05:00,
2013-03-22 23:20:00,62.0,56.0,0.00,ESE,109,1.0,-999.0,81,-99.99,,,0.03,weatherlink.com 1.10,2013-03-23 04:20:00,
2013-03-22 23:35:00,62.0,56.0,0.00,East,95,4.0,-999.0,80,-99.99,,,0.03,weatherlink.com 1.10,2013-03-23 04:35:00,
2013-03-22 23:50:00,62.1,56.0,0.00,ESE,107,2.0,-999.0,80,-99.99,,,0.03,weatherlink.com 1.10,2013-03-23 04:50:00,